Regional Weather Roundup
Issued by NWS

Home | Current Version | Previous Version | Text Only | Print | Product List | Glossary Off
Versions: 1 2 3 4 5 6 7 8 9 10 11 12 13 14 15 16 17 18 19 20 21 22 23 24 25 26 27 28 29 30 31 32 33 34 35 36 37 38 39 40 41 42 43 44 45 46 47 48 49 50

000
ASUS45 KSLC 030410
RWRUT

UTAH REGIONAL WEATHER ROUNDUP
NATIONAL WEATHER SERVICE SALT LAKE CITY UT
1000 PM MDT THU JUL 02 2015

UTZ001>011-023>025-030500-

NORTHERN UTAH

CITY           SKY/WX    TMP DP  RH WIND       PRES   REMARKS
BRIGHAM CITY   MOCLDY    88  46  23 CALM      29.98S
HILL AFB       MOCLDY    83  47  29 E7        30.03R
LOGAN          CLEAR     78  53  41 E3        30.00R
OGDEN          MOCLDY    83  49  30 S6        29.99R
PROVO AIRPORT  PTCLDY    77  52  41 E6        30.01R
SALT LAKE CITY MOCLDY    86  54  33 SW3       29.97R
VERNAL         PTCLDY    80  47  31 NE9       30.04R
WENDOVER       MOCLDY    90  43  19 NW8       29.99S
HEBER CITY     PTCLDY    68  43  40 CALM      30.11R
WEST JORDAN    CLEAR     84  43  23 E5        30.02R

$$

UTZ012>022-026-027-030500-

SOUTHERN/CENTRAL UTAH

CITY           SKY/WX    TMP DP  RH WIND       PRES   REMARKS
BLANDING       PTCLDY    74  53  46 N7        30.16R
BRYCE CANYON   CLOUDY    62  52  69 W9        30.30R
CEDAR CITY     CLOUDY    74  48  39 SE6       30.15R
DELTA          PTCLDY    84  35  17 MISG      30.03R
HANKSVILLE     PTCLDY    84  34  16 CALM      29.96R
MILFORD        CLOUDY    77  56  48 SE7       30.07S
MOAB/CYNLANDS  CLEAR     86  46  24 CALM      29.94R
PRICE          CLEAR     83  31  15 NW9       30.09R
ST GEORGE      PTCLDY    90  55  31 SE3       29.91R
KANAB          CLOUDY    73  57  56 CALM      30.14R

$$

REGIONAL REPORTS     COLORADO/ARIZONA

CITY           SKY/WX    TMP DP  RH WIND       PRES   REMARKS
CRAIG, CO      PTCLDY    75  41  29 E14       30.17R
GRAND JUNCTION CLEAR     82  46  28 E6        29.97R
RIFLE          CLEAR     77  41  27 S8        30.05R
MONTROSE       PTCLDY    79  50  36 SE10      30.09R
CORTEZ         PTCLDY    69  58  67 NE6       30.13R
PAGE, AZ       CLOUDY    88  48  25 W6        29.98R
GRAND CANYON   CLOUDY    71  51  49 NE5       30.24R
KINGMAN        CLEAR     86  48  26 SW9       29.98R
FLAGSTAFF      CLOUDY    65  55  70 VRB3      30.27R

$$

REGIONAL REPORTS    NEVADA/IDAHO/WYOMING

CITY           SKY/WX    TMP DP  RH WIND       PRES   REMARKS
LAS VEGAS, NV  PTCLDY   101  53  20 SW13      29.78R HX  99
ELY            CLOUDY    72  50  45 SW10      30.22S
ELKO           MOCLDY    77  47  34 W3        30.10R
POCATELLO, ID  CLEAR     75  40  28 S8        30.00R
BURLEY         CLEAR     75  55  49 S8        29.96R
EVANSTON, WY   PTCLDY    73  40  30 NW6       30.24R
ROCK SPRINGS   PTCLDY    67  45  45 E7        30.22R
KEMMERER       CLEAR    N/A N/A N/A N12G18    30.26R

$$


USA.gov is the U.S. government's official web portal to all federal, state and local government web resources and services.